Location: Mentone
(34.5413°N, 85.5351°W)
Time: 10:28:45
(UTC-06:00)

Cosmos 2150 Rocket - Visible Passes

Search period start: 19 December 2014 00:00
Search period end: 29 December 2014 00:00
Orbit: 749 x 810 km, 74.0° (Epoch: 18 December)

Date Brightness Start Highest point End Pass type
(mag) Time Alt. Az. Time Alt. Az. Time Alt. Az.
19 Dec 6.8 04:19:06 10° SE 04:22:19 17° E 04:25:34 10° ENE visible
19 Dec 4.3 05:59:06 10° SW 06:04:07 47° WNW 06:09:15 10° N visible
20 Dec 3.9 05:25:15 10° SSW 05:30:28 79° WNW 05:35:49 10° NNE visible
21 Dec 4.5 04:51:45 10° S 04:56:54 63° ESE 05:02:10 10° NNE visible
21 Dec 7.6 17:11:11 10° W 17:11:43 10° W 17:12:15 10° W visible
22 Dec 5.4 04:18:39 10° SSE 04:23:25 37° E 04:28:17 10° NE visible
22 Dec 5.1 06:01:41 10° WSW 06:05:47 23° WNW 06:09:57 10° NNW visible
23 Dec 6.3 03:46:01 10° SSE 03:50:00 22° E 03:54:02 10° NE visible
23 Dec 4.5 05:27:11 10° SW 05:32:00 36° WNW 05:36:55 10° N visible
24 Dec 6.9 03:14:18 10° ESE 03:16:39 13° E 03:19:01 10° ENE visible
24 Dec 4.0 04:53:08 10° SSW 04:58:18 60° WNW 05:03:36 10° N visible
25 Dec 4.3 04:25:45 58° NNE 04:25:45 58° NNE 04:30:03 10° NNE visible
25 Dec 5.8 06:06:28 10° WNW 06:07:41 11° WNW 06:08:57 10° NW visible
26 Dec 6.2 03:54:56 18° NE 03:54:56 18° NE 03:56:18 10° NNE visible
26 Dec 5.7 05:35:33 15° NW 05:35:33 15° NW 05:37:18 10° NNW visible
27 Dec 6.1 05:03:51 13° N 05:03:51 13° N 05:04:29 10° N visible
